This demonstration page uses our WeatherBlox Daily Observations layout. Learn more.

Left ArrowRight Arrow

39.51506, -84.39828

Hourly Observations for November 10, 2021

Temp ( °F °C ) Dew Point ( °F °C ) Humidity (%) Winds ( mph kmh ) Pressure ( in mb ) Visibility ( mi km ) Precip ( " mm )
12:15 am 00:15 Clear 46 7.9 46 7.6 98 98 Calm 30.15 1021 10 16 0.00 0.00
12:35 am 00:35 Clear 46 8 46 7.7 98 98 Calm 30.16 1021 10 16 0.00 0.00
12:55 am 00:55 Mostly Cloudy 45 7.4 45 7 97 97 Calm 30.17 1022 10 16 0.00 0.00
1:15 am 01:15 Partly Cloudy 45 7.2 45 7 99 99 Calm 30.16 1021 7 11 0.00 0.00
1:35 am 01:35 Partly Cloudy 45 7 44 6.9 99 99 NW 3 6 30.17 1022 10 16 0.00 0.00
1:55 am 01:55 Partly Cloudy 44 6.9 44 6.8 99 99 N 3 6 30.17 1022 10 16 0.00 0.00
2:15 am 02:15 Partly Cloudy 44 6.7 44 6.6 99 99 Calm 30.18 1022 10 16 0.00 0.00
2:35 am 02:35 Partly Cloudy 44 6.7 44 6.5 99 99 Calm 30.18 1022 10 16 0.00 0.00
2:55 am 02:55 Clear 43 5.9 42 5.8 99 99 N 5 7 30.19 1022 10 16 0.00 0.00
3:15 am 03:15 Clear 42 5.6 42 5.4 99 99 Calm 30.19 1022 7 11 0.00 0.00
3:35 am 03:35 Mostly Cloudy with Mist and Fog 43 6.1 43 6 99 99 Calm 30.19 1022 1 2 0.00 0.00
3:55 am 03:55 Clear with Mist and Fog 41 5.2 41 5.1 99 99 N 5 7 30.19 1022 4 6 0.00 0.00
4:15 am 04:15 Clear 42 5.4 42 5.3 99 99 NNE 3 6 30.18 1022 7 11 0.00 0.00
4:35 am 04:35 Clear with Mist and Fog 43 6 43 5.9 99 99 Calm 30.18 1022 7 11 0.00 0.00
4:55 am 04:55 Clear with Mist and Fog 40 4.7 40 4.6 99 99 NNE 3 6 30.18 1022 5 8 0.00 0.00
5:15 am 05:15 Mostly Cloudy with Mist and Fog 39 4 39 3.8 99 99 NE 5 7 30.19 1023 2 3 0.00 0.00
5:35 am 05:35 Mostly Cloudy with Mist and Fog 39 3.7 38 3.6 99 99 NE 5 7 30.21 1023 1 2 0.00 0.00
5:55 am 05:55 Clear with Mist and Fog 41 4.8 40 4.6 99 99 NE 5 7 30.20 1023 5 8 0.00 0.00
6:15 am 06:15 Clear with Mist and Fog 42 5.3 41 5.2 99 99 NE 5 7 30.20 1023 4 6 0.00 0.00
6:35 am 06:35 Clear with Mist and Fog 41 4.9 40 4.7 99 99 NE 5 7 30.20 1023 4 6 0.00 0.00
6:55 am 06:55 Clear with Mist and Fog 40 4.2 39 4.1 99 99 NNE 5 7 30.21 1023 4 6 0.00 0.00
7:15 am 07:15 Clear with Mist and Fog 40 4.7 40 4.6 99 99 NE 5 7 30.21 1023 4 6 0.00 0.00
7:35 am 07:35 Sunny with Mist and Fog 40 4.6 40 4.4 99 99 ENE 3 6 30.21 1023 4 6 0.00 0.00
7:55 am 07:55 Sunny with Mist and Fog 41 4.9 40 4.7 99 99 Calm 30.22 1023 3 4 0.00 0.00
8:15 am 08:15 Sunny with Mist and Fog 42 5.5 42 5.4 99 99 Calm 30.22 1023 3 5 0.00 0.00
8:35 am 08:35 Sunny with Mist and Fog 44 6.6 44 6.5 99 99 Calm 30.23 1024 4 6 0.00 0.00
8:55 am 08:55 Sunny with Mist and Fog 46 7.5 45 7.3 99 99 NNE 5 7 30.23 1024 4 6 0.00 0.00
9:15 am 09:15 Sunny with Mist and Fog 48 9 46 7.8 92 92 ENE 6 9 30.21 1023 5 8 0.00 0.00
9:35 am 09:35 Sunny with Mist and Fog 50 9.8 46 8 89 89 ENE 6 9 30.21 1023 5 8 0.00 0.00
9:55 am 09:55 Hazy 52 11.3 47 8.3 82 82 ENE 5 7 30.21 1023 5 8 0.00 0.00
10:15 am 10:15 Hazy 53 11.9 47 8.4 79 79 NE 6 9 30.20 1023 5 8 0.00 0.00
10:35 am 10:35 Hazy 56 13.1 47 8.6 74 74 NE 7 11 30.19 1022 7 11 0.00 0.00
10:55 am 10:55 Hazy 57 14 47 8.5 70 70 NE 5 7 30.19 1022 7 11 0.00 0.00
11:15 am 11:15 Mostly Cloudy 59 14.9 46 8 64 64 E 7 11 30.19 1022 7 11 0.00 0.00
11:35 am 11:35 Cloudy 60 15.5 47 8.4 63 63 ESE 7 11 30.18 1022 10 16 0.00 0.00
11:55 am 11:55 Cloudy 60 15.7 47 8.3 62 62 SE 7 11 30.15 1021 10 16 0.00 0.00
12:15 pm 12:15 Cloudy 60 15.7 47 8.6 63 63 ESE 6 9 30.14 1021 10 16 0.00 0.00
12:35 pm 12:35 Cloudy with Haze 61 16.2 47 8.4 60 60 SE 8 13 30.13 1020 7 11 0.00 0.00
12:55 pm 12:55 Cloudy 62 16.4 47 8.5 60 60 SE 6 9 30.13 1020 10 16 0.00 0.00
1:15 pm 13:15 Cloudy 62 16.7 48 8.9 60 60 SE 5 7 30.12 1020 10 16 0.00 0.00
1:35 pm 13:35 Cloudy 62 16.6 47 8.4 59 59 E 5 7 30.11 1020 10 16 0.00 0.00
1:55 pm 13:55 Mostly Cloudy 63 17.2 48 8.7 58 58 S 6 9 30.11 1020 10 16 0.00 0.00
2:15 pm 14:15 Cloudy 64 17.6 49 9.2 58 58 E 6 9 30.10 1019 10 16 0.00 0.00
2:35 pm 14:35 Partly Cloudy 64 17.9 48 9.1 57 57 ESE 5 7 30.09 1019 10 16 0.00 0.00
2:55 pm 14:55 Sunny 65 18.1 49 9.2 56 56 SSE 5 7 30.08 1019 10 16 0.00 0.00
3:15 pm 15:15 Mostly Cloudy 65 18.4 49 9.5 56 56 E 6 9 30.08 1019 10 16 0.00 0.00
3:35 pm 15:35 Partly Cloudy 65 18.4 49 9.4 56 56 SE 8 13 30.08 1019 10 16 0.00 0.00
3:55 pm 15:55 Sunny 65 18.1 49 9.4 57 57 SE 6 9 30.08 1019 10 16 0.00 0.00
4:15 pm 16:15 Sunny 64 17.9 49 9.7 59 59 ESE 7 11 30.07 1018 10 16 0.00 0.00
4:35 pm 16:35 Sunny 63 17.3 49 9.6 61 61 ESE 7 11 30.07 1018 10 16 0.00 0.00
4:55 pm 16:55 Sunny 62 16.6 50 9.8 64 64 E 5 7 30.07 1018 10 16 0.00 0.00
5:15 pm 17:15 Sunny 58 14.7 50 9.8 73 73 E 5 7 30.08 1019 10 16 0.00 0.00
5:35 pm 17:35 Clear 58 14.7 50 9.9 73 73 E 5 7 30.08 1019 10 16 0.00 0.00
5:55 pm 17:55 Clear 55 12.7 50 10 84 84 N 5 7 30.09 1019 10 16 0.00 0.00
6:15 pm 18:15 Clear 54 12 51 10.3 89 89 N 3 6 30.09 1019 10 16 0.00 0.00
6:35 pm 18:35 Clear 53 11.6 50 10 90 90 Calm 30.09 1019 10 16 0.00 0.00
6:55 pm 18:55 Clear 53 11.6 50 10.2 91 91 NNE 3 6 30.09 1019 10 16 0.00 0.00
7:15 pm 19:15 Clear 52 11.1 50 9.9 92 92 NNE 5 7 30.09 1019 10 16 0.00 0.00
7:35 pm 19:35 Clear 51 10.8 50 9.8 94 94 NNE 5 7 30.08 1019 10 16 0.00 0.00
7:55 pm 19:55 Clear 53 11.6 50 10 90 90 ENE 6 9 30.06 1018 10 16 0.00 0.00
8:15 pm 20:15 Clear 58 14.6 50 9.8 73 73 ESE 10 17 30.04 1017 10 16 0.00 0.00
8:35 pm 20:35 Clear 58 14.5 49 9.4 72 72 SE 3 6 30.05 1018 10 16 0.00 0.00
8:55 pm 20:55 Clear 52 10.9 49 9.3 90 90 Calm 30.07 1018 10 16 0.00 0.00
9:15 pm 21:15 Clear 49 9.7 48 8.8 94 94 Calm 30.06 1018 10 16 0.00 0.00
9:35 pm 21:35 Clear 48 9.1 48 8.8 98 98 Calm 30.06 1018 10 16 0.00 0.00
9:55 pm 21:55 Clear 47 8.6 47 8.3 98 98 NNE 3 6 30.06 1018 10 16 0.00 0.00
10:15 pm 22:15 Clear 47 8.5 47 8.2 98 98 Calm 30.05 1018 10 16 0.00 0.00
10:35 pm 22:35 Clear with Mist and Fog 46 7.6 45 7.4 99 99 Calm 30.05 1017 7 11 0.00 0.00
10:55 pm 22:55 Clear with Mist and Fog 46 7.8 46 7.7 99 99 Calm 30.04 1017 4 6 0.00 0.00
11:15 pm 23:15 Clear with Mist and Fog 45 7.2 45 7.1 99 99 NNE 3 6 30.03 1017 7 11 0.00 0.00
11:35 pm 23:35 Clear with Mist and Fog 44 6.6 44 6.5 99 99 Calm 30.03 1017 5 8 0.00 0.00
11:55 pm 23:55 Clear with Mist and Fog 44 6.9 44 6.9 100 100 Calm 30.02 1016 7 11 0.00 0.00

Powered by AerisWeather